Location: Allisons_Woods
(35.8920°N, 81.8170°W)
Time: 15:19:57
(UTC-04:00)

Daily predictions for brighter satellites

Satellite Brightness Start Highest point End
(mag) Time Altitude Azimuth Time Altitude Azimuth Time Altitude Azimuth
Sakura Rocket 4.3 20:25:03 10° SW 20:29:34 28° S 20:33:11 10° ESE
Cosmos 2221 3.1 20:28:03 10° SSW 20:32:16 62° W 20:36:30 10° N
NOSS 2-1 (C) 3.6 20:31:33 10° SW 20:35:08 66° WNW 20:38:55 10° NNE
NOSS 2-1 (D) 3.7 20:32:32 10° SW 20:36:07 63° WNW 20:39:55 10° NNE
Cosmos 1340 2.7 20:33:47 10° S 20:37:30 61° E 20:41:15 10° NNE
Cosmos 2228 Rocket 4.5 20:38:04 10° SE 20:41:06 19° E 20:44:09 10° NE
H-2A R/B 4.5 20:38:11 10° SSW 20:41:35 34° W 20:45:03 10° NNW
SPOT 3 Rocket 4.5 20:37:05 10° S 20:42:06 52° W 20:47:09 10° NNW
SL-24 R/B - RUBIN 2 3.8 20:39:22 10° NNW 20:43:36 50° ENE 20:47:53 10° SE
Thor Agena Rocket 3.7 20:38:32 10° NNE 20:43:40 53° E 20:48:49 10° S
HJ-1C 3.4 20:40:22 10° SSE 20:43:41 89° SSW 20:47:04 10° NNW
In-Cosmos 22 Rocket 4.1 20:38:33 10° N 20:44:00 76° E 20:49:19 10° SSE
ATLAS 2AS CENTAUR R/B 3.7 20:38:41 10° NNW 20:45:57 38° NE 20:52:15 12° ESE
ASTRO E2 4.4 20:46:22 10° SSW 20:49:04 17° SSE 20:51:08 13° ESE
OAO 2 Rocket 3.5 20:44:57 10° W 20:50:10 71° S 20:54:42 13° ESE
Cosmos 1805 Rocket 3.5 20:48:32 10° N 20:52:54 88° W 20:57:13 10° S
Spot 2 Rocket 4.5 20:49:02 10° SE 20:53:19 29° ENE 20:57:40 10° N
Cosmos 1825 4.2 20:52:35 10° NE 20:54:07 12° ENE 20:54:53 12° E
Cosmos 1328 Rocket 4.0 20:50:55 10° SSE 20:55:01 40° E 20:59:11 10° NNE
H-2A R/B 3.0 20:53:25 10° W 20:56:25 16° SW 20:58:06 10° S
Cosmos 2154 Rocket 4.0 20:50:11 10° S 20:56:26 78° E 21:02:40 10° N
ATLAS CENTAUR R/B 0.9 20:53:29 10° SSW 20:57:04 71° ESE 21:00:49 10° NE
SL-8 R/B 3.6 20:52:33 10° SW 20:57:19 76° SE 21:02:07 10° ENE
SL-16 R/B 3.6 21:01:32 15° ESE 21:02:13 15° E 21:05:19 10° ENE
Meteor 2-15 4.4 20:56:44 10° N 21:02:54 84° E 21:09:00 10° S
Timation 1 Rocket 4.3 20:58:59 10° NNW 21:04:58 73° ENE 21:10:41 11° SSE
Resurs 01 Rocket 1.9 21:02:01 11° SE 21:06:02 48° ENE 21:10:18 10° N
SJ-6B 3.6 21:05:52 10° S 21:09:50 55° W 21:13:46 10° NNW
Cosmos 1470 Rocket 4.3 21:06:58 10° NNE 21:10:59 34° ENE 21:13:19 20° SE
Haruka 4.2 21:04:53 10° W 21:13:14 36° SSW 21:15:51 17° SSE
Meteor 2-3 Rocket 3.7 21:09:24 10° N 21:14:58 61° E 21:20:11 12° SSE
Cosmos 1939 Rocket 2.7 21:13:06 13° SSE 21:16:33 75° ENE 21:20:27 10° N
Cosmos 2341 Rocket 4.0 21:13:25 10° S 21:19:46 80° E 21:26:07 10° N
Cosmos 1869 4.2 21:19:47 26° ESE 21:20:29 28° E 21:23:56 10° NNE
NOSS 0 Rocket 3.8 21:15:13 10° SSW 21:21:21 80° ESE 21:27:34 10° NNE
Cosmos 962 Rocket 4.4 21:15:30 10° S 21:21:36 86° E 21:27:48 10° N
Cosmos 2218 Rocket 4.3 21:18:39 10° SSE 21:24:38 46° E 21:30:40 10° NNE
Aureole 2 4.3 21:24:13 10° SSW 21:27:17 68° WNW 21:30:14 10° NNE
Cosmos 1980 3.6 21:22:26 10° SSW 21:28:06 80° ESE 21:33:49 10° NNE
USA 267 4.0 21:25:50 10° ENE 21:31:14 27° SE 21:36:35 10° S
Cosmos 1666 Rocket 4.5 21:29:14 10° NNW 21:33:33 49° W 21:37:49 10° SSW
Cosmos 2366 rocket 4.1 21:31:03 14° SSE 21:36:07 51° E 21:42:09 10° NNE
H-2A R/B 3.2 21:36:33 22° E 21:37:12 23° ENE 21:41:04 10° NNE
Cosmos 1408 2.8 21:34:13 10° N 21:37:48 49° E 21:38:11 46° ESE
ERS-2 3.9 21:35:28 10° SSW 21:38:44 31° W 21:42:02 10° NW
Cosmos 220 Rocket 3.9 21:34:29 10° NNW 21:38:49 89° ENE 21:40:43 32° SSE
Cosmos 2333 Rocket 3.1 21:33:32 10° SW 21:39:01 50° WNW 21:44:31 10° N
Resurs 1-3 3.9 21:35:47 15° S 21:39:22 66° WSW 21:43:44 10° NNW
Cosmos 1933 Rocket 3.5 21:35:19 10° N 21:39:39 60° E 21:41:04 38° SE
TRAILBLAZER 4.5 21:35:30 10° SSW 21:40:02 84° ESE 21:44:43 10° NNE
Cosmos 1371 Rocket 4.0 21:35:00 10° S 21:40:11 59° ESE 21:45:27 10° NNE
Cosmos 1151 Rocket 2.9 21:35:57 10° S 21:40:12 90° W 21:44:29 10° N
Cosmos 1455 3.5 21:37:03 10° SSW 21:40:40 42° W 21:44:22 10° N
USA 186 3.4 21:40:40 16° SW 21:41:31 20° W 21:43:16 10° NW
SL-8 Rocket 3.9 21:38:51 10° S 21:45:10 83° E 21:51:28 10° N
Cosmos 1844 Rocket 3.9 21:40:04 10° NW 21:45:18 40° WSW 21:50:31 10° S
YAOGAN 6 4.4 21:48:32 11° SSW 21:51:30 30° W 21:54:44 10° NW
Cosmos 2219 Rocket 4.0 21:48:40 10° WSW 21:53:41 32° WNW 21:58:43 10° N
Cosmos 2237 Rocket 2.6 21:49:57 10° SSW 21:55:30 65° WNW 22:01:06 10° NNE
Cosmos 2056 Rocket 3.4 21:57:10 15° S 22:01:39 75° ESE 22:07:03 10° NNE
Genesis I 3.5 22:00:38 10° NW 22:04:40 63° WSW 22:05:02 59° SSW
Cosmos 2278 Rocket 2.1 22:02:25 10° NNW 22:08:07 84° WSW 22:09:51 47° SSE
Terra 4.2 22:09:24 10° NE 22:09:24 10° NE 22:09:41 10° NE
Cosmos 2098 Rocket 3.1 22:07:14 42° S 22:08:49 84° W 22:12:50 10° N
Cosmos 864 Rocket 4.5 22:12:08 19° SSW 22:16:40 78° W 22:22:49 10° N
Cosmos 1624 Rocket 4.1 22:13:55 12° SSW 22:18:41 71° WNW 22:23:52 10° NNE
Cosmos 1190 Rocket 4.0 22:19:52 10° N 22:24:56 64° ENE 22:24:56 64° ENE
ATLAS 2A CENTAUR R/B 3.9 22:08:58 10° WSW 22:25:56 44° S 22:27:51 41° SSE
SPOT 5 4.1 22:28:34 29° NE 22:28:34 29° NE 22:31:14 10° N
Cosmos 1825 3.6 22:26:21 10° NNW 22:29:46 34° W 22:29:46 34° W
ATLAS 2AS CENTAUR R/B 3.6 22:29:46 10° NW 22:37:03 46° WSW 22:39:44 33° SSW
GEOS 3 Rocket 3.7 22:37:20 10° NNE 22:42:41 77° NW 22:43:44 57° WSW
Resurs 01 Rocket 4.4 22:40:40 10° WSW 22:42:43 13° W 22:44:47 10° WNW
SL-16 R/B 2.6 22:43:11 33° SW 22:45:42 62° WNW 22:51:19 10° NNE
ARGOS 3.6 22:48:16 53° WSW 22:48:37 54° W 22:53:51 10° NNW
Cosmos 2344 3.4 22:41:59 10° SSW 22:49:39 82° ESE 22:57:44 10° NNE
MetOp-B 4.5 22:51:07 59° WSW 22:51:08 59° W 22:56:25 10° NNW
Cosmos 1943 Rocket 4.4 22:53:08 10° NNE 22:54:37 12° NE 22:54:37 12° NE
Cosmos 1821 Rocket 4.1 22:57:37 69° NE 22:57:37 69° NE 23:03:12 10° N
NOSS 3-4 (A) 3.7 23:00:33 10° NNW 23:07:45 87° WSW 23:07:53 86° SSW
NOSS 3-4 (C) 3.7 23:00:39 10° NNW 23:07:51 88° WSW 23:07:59 87° S
SPOT 1/Viking Rocket 4.4 23:09:38 48° NNW 23:09:38 48° NNW 23:13:21 10° NNW
ERS-1 Rocket 4.0 23:10:08 41° WNW 23:10:08 41° WNW 23:14:02 10° NNW
USA 267 3.4 23:07:59 10° NE 23:14:29 71° NW 23:20:59 10° SW
H-2A R/B 3.4 23:17:10 33° WNW 23:17:10 33° WNW 23:20:58 10° NNW
Cosmos 2369 Rocket 3.9 23:22:15 10° N 23:25:18 26° NNE 23:25:18 26° NNE
CZ-4C R/B 3.9 23:44:41 26° N 23:44:41 26° N 23:47:24 10° NNE
Terra 4.0 23:48:17 23° NNW 23:48:17 23° NNW 23:50:03 10° NNW
USA 234 4.4 23:45:38 33° NE 23:45:52 33° NNE 23:51:33 10° NNW
